Time,TemperatureF,DewpointF,PressureIn,WindDirection,WindDirectionDegrees,WindSpeedMPH,WindSpeedGustMPH,Humidity,HourlyPrecipIn,Conditions,Clouds,dailyrainin,SoftwareType,DateUTC
2013-01-14 00:02:00,-1.9,-5.3,30.51,WNW,286,2.0,4.0,85,0.00,,---,0.00,VWS V13.01,2013-01-14 06:02:00,
2013-01-14 00:07:00,-2.1,-5.2,30.51,WNW,288,1.0,8.0,86,0.00,,---,0.00,VWS V13.01,2013-01-14 06:07:00,
2013-01-14 00:12:00,-2.3,-5.7,30.51,WNW,289,1.0,9.0,85,0.00,,---,0.00,VWS V13.01,2013-01-14 06:12:00,
2013-01-14 00:18:00,-2.5,-5.9,30.50,WNW,296,2.0,4.0,85,0.00,,---,0.00,VWS V13.01,2013-01-14 06:18:00,
2013-01-14 00:23:00,-2.7,-6.1,30.50,West,281,2.0,7.0,85,0.00,,---,0.00,VWS V13.01,2013-01-14 06:23:00,
2013-01-14 00:28:00,-2.8,-6.2,30.50,WNW,303,3.0,8.0,85,0.00,,---,0.00,VWS V13.01,2013-01-14 06:28:00,
2013-01-14 00:33:00,-2.8,-6.2,30.50,WNW,296,3.0,5.0,85,0.00,,---,0.00,VWS V13.01,2013-01-14 06:33:00,
2013-01-14 00:38:00,-2.9,-6.3,30.50,West,279,3.0,9.0,85,0.00,,---,0.00,VWS V13.01,2013-01-14 06:38:00,
2013-01-14 00:43:00,-2.9,-6.3,30.50,West,279,2.0,9.0,85,0.00,,---,0.00,VWS V13.01,2013-01-14 06:43:00,
2013-01-14 00:48:00,-3.0,-6.4,30.50,West,279,0.0,5.0,85,0.00,,---,0.00,VWS V13.01,2013-01-14 06:48:00,
2013-01-14 00:53:00,-3.0,-6.4,30.50,WNW,291,0.0,6.0,85,0.00,,---,0.00,VWS V13.01,2013-01-14 06:53:00,
2013-01-14 00:58:00,-3.1,-6.5,30.50,WNW,291,0.0,6.0,85,0.00,,---,0.00,VWS V13.01,2013-01-14 06:58:00,
2013-01-14 01:03:00,-3.2,-6.6,30.50,WNW,290,0.0,4.0,85,0.00,,---,0.00,VWS V13.01,2013-01-14 07:03:00,
2013-01-14 01:08:00,-3.2,-6.6,30.50,West,279,3.0,6.0,85,0.00,,---,0.00,VWS V13.01,2013-01-14 07:08:00,
2013-01-14 01:14:00,-3.2,-6.6,30.50,WNW,282,2.0,6.0,85,0.00,,---,0.00,VWS V13.01,2013-01-14 07:14:00,
2013-01-14 01:19:00,-3.1,-6.5,30.51,West,273,2.0,6.0,85,0.00,,---,0.00,VWS V13.01,2013-01-14 07:19:00,
2013-01-14 01:24:00,-3.1,-6.5,30.51,West,279,3.0,9.0,85,0.00,,---,0.00,VWS V13.01,2013-01-14 07:24:00,
2013-01-14 01:29:00,-3.1,-6.5,30.51,WNW,303,1.0,9.0,85,0.00,,---,0.00,VWS V13.01,2013-01-14 07:29:00,
2013-01-14 01:34:00,-3.0,-6.4,30.51,West,278,1.0,5.0,85,0.00,,---,0.00,VWS V13.01,2013-01-14 07:34:00,
2013-01-14 01:39:00,-3.1,-6.5,30.51,West,279,0.0,5.0,85,0.00,,---,0.00,VWS V13.01,2013-01-14 07:39:00,
2013-01-14 01:44:00,-3.4,-6.8,30.51,West,279,1.0,5.0,85,0.00,,---,0.00,VWS V13.01,2013-01-14 07:44:00,
2013-01-14 01:50:00,-3.6,-7.0,30.52,West,275,1.0,5.0,85,0.00,,---,0.00,VWS V13.01,2013-01-14 07:50:00,
2013-01-14 01:55:00,-3.6,-7.0,30.52,West,275,1.0,5.0,85,0.00,,---,0.00,VWS V13.01,2013-01-14 07:55:00,
2013-01-14 02:00:00,-3.6,-7.0,30.54,West,275,0.0,5.0,85,0.00,,---,0.00,VWS V13.01,2013-01-14 08:00:00,
2013-01-14 02:06:00,-3.5,-6.9,30.54,West,274,2.0,3.0,85,0.00,,---,0.00,VWS V13.01,2013-01-14 08:06:00,
2013-01-14 02:11:00,-3.3,-6.7,30.54,West,274,0.0,3.0,85,0.00,,---,0.00,VWS V13.01,2013-01-14 08:11:00,
2013-01-14 02:16:00,-3.0,-6.1,30.52,West,275,1.0,4.0,86,0.00,,---,0.00,VWS V13.01,2013-01-14 08:16:00,
2013-01-14 02:21:00,-2.6,-5.7,30.52,NW,304,4.0,9.0,86,0.00,,---,0.00,VWS V13.01,2013-01-14 08:21:00,
2013-01-14 02:26:00,-2.2,-5.3,30.52,WNW,282,2.0,9.0,86,0.00,,---,0.00,VWS V13.01,2013-01-14 08:26:00,
2013-01-14 02:31:00,-1.9,-5.1,30.53,West,262,1.0,3.0,86,0.00,,---,0.00,VWS V13.01,2013-01-14 08:31:00,
2013-01-14 02:37:00,-1.8,-5.0,30.53,West,261,1.0,6.0,86,0.00,,---,0.00,VWS V13.01,2013-01-14 08:37:00,
2013-01-14 02:42:00,-1.7,-4.9,30.53,West,271,4.0,7.0,86,0.00,,---,0.00,VWS V13.01,2013-01-14 08:42:00,
2013-01-14 02:47:00,-1.5,-4.7,30.54,SW,227,6.0,7.0,86,0.00,,---,0.00,VWS V13.01,2013-01-14 08:47:00,
2013-01-14 02:52:00,-1.4,-4.6,30.54,West,269,2.0,9.0,86,0.00,,---,0.00,VWS V13.01,2013-01-14 08:52:00,
2013-01-14 02:58:00,-1.4,-4.6,30.54,WNW,287,5.0,10.0,86,0.00,,---,0.00,VWS V13.01,2013-01-14 08:58:00,
2013-01-14 03:03:00,-1.4,-4.6,30.52,WSW,253,2.0,9.0,86,0.00,,---,0.00,VWS V13.01,2013-01-14 09:03:00,
2013-01-14 03:08:00,-1.3,-4.5,30.52,West,271,0.0,10.0,86,0.00,,---,0.00,VWS V13.01,2013-01-14 09:08:00,
2013-01-14 03:13:00,-1.3,-4.5,30.52,West,280,5.0,10.0,86,0.00,,---,0.00,VWS V13.01,2013-01-14 09:13:00,
2013-01-14 03:18:00,-1.3,-4.5,30.54,WNW,288,3.0,7.0,86,0.00,,---,0.00,VWS V13.01,2013-01-14 09:18:00,
2013-01-14 03:23:00,-1.4,-4.6,30.54,West,259,3.0,9.0,86,0.00,,---,0.00,VWS V13.01,2013-01-14 09:23:00,
2013-01-14 03:29:00,-1.4,-4.8,30.54,West,275,5.0,9.0,85,0.00,,---,0.00,VWS V13.01,2013-01-14 09:29:00,
2013-01-14 03:34:00,-1.5,-4.9,30.54,West,265,4.0,8.0,85,0.00,,---,0.00,VWS V13.01,2013-01-14 09:34:00,
2013-01-14 03:39:00,-1.7,-5.1,30.54,West,267,5.0,8.0,85,0.00,,---,0.00,VWS V13.01,2013-01-14 09:39:00,
2013-01-14 03:44:00,-1.9,-5.3,30.54,West,272,4.0,8.0,85,0.00,,---,0.00,VWS V13.01,2013-01-14 09:44:00,
2013-01-14 03:49:00,-2.1,-5.5,30.54,WNW,290,3.0,6.0,85,0.00,,---,0.00,VWS V13.01,2013-01-14 09:49:00,
2013-01-14 03:54:00,-2.2,-5.6,30.54,West,276,2.0,9.0,85,0.00,,---,0.00,VWS V13.01,2013-01-14 09:54:00,
2013-01-14 03:59:00,-2.4,-5.8,30.54,West,262,3.0,9.0,85,0.00,,---,0.00,VWS V13.01,2013-01-14 09:59:00,
2013-01-14 04:04:00,-2.5,-5.9,30.55,West,265,1.0,6.0,85,0.00,,---,0.00,VWS V13.01,2013-01-14 10:04:00,
2013-01-14 04:09:00,-2.7,-6.1,30.55,West,269,1.0,6.0,85,0.00,,---,0.00,VWS V13.01,2013-01-14 10:09:00,
2013-01-14 04:15:00,-2.8,-6.2,30.55,WSW,258,2.0,6.0,85,0.00,,---,0.00,VWS V13.01,2013-01-14 10:15:00,
2013-01-14 04:20:00,-2.8,-6.2,30.55,West,261,0.0,3.0,85,0.00,,---,0.00,VWS V13.01,2013-01-14 10:20:00,
2013-01-14 04:25:00,-2.8,-6.2,30.55,West,262,5.0,7.0,85,0.00,,---,0.00,VWS V13.01,2013-01-14 10:25:00,
2013-01-14 04:30:00,-2.7,-6.1,30.55,West,263,4.0,9.0,85,0.00,,---,0.00,VWS V13.01,2013-01-14 10:30:00,
2013-01-14 04:35:00,-2.7,-6.1,30.55,West,273,4.0,7.0,85,0.00,,---,0.00,VWS V13.01,2013-01-14 10:35:00,
2013-01-14 04:41:00,-2.6,-6.0,30.55,West,265,3.0,7.0,85,0.00,,---,0.00,VWS V13.01,2013-01-14 10:41:00,
2013-01-14 04:46:00,-2.7,-6.1,30.54,West,263,5.0,7.0,85,0.00,,---,0.00,VWS V13.01,2013-01-14 10:46:00,
2013-01-14 04:51:00,-2.6,-6.0,30.54,WNW,282,1.0,7.0,85,0.00,,---,0.00,VWS V13.01,2013-01-14 10:51:00,
2013-01-14 04:56:00,-2.6,-6.0,30.54,WNW,285,3.0,7.0,85,0.00,,---,0.00,VWS V13.01,2013-01-14 10:56:00,
2013-01-14 05:02:00,-2.6,-6.0,30.55,WNW,285,4.0,6.0,85,0.00,,---,0.00,VWS V13.01,2013-01-14 11:02:00,
2013-01-14 05:07:00,-2.5,-5.9,30.55,WNW,284,2.0,6.0,85,0.00,,---,0.00,VWS V13.01,2013-01-14 11:07:00,
2013-01-14 05:12:00,-2.4,-5.8,30.55,West,281,2.0,10.0,85,0.00,,---,0.00,VWS V13.01,2013-01-14 11:12:00,
2013-01-14 05:17:00,-2.4,-5.8,30.56,West,267,4.0,9.0,85,0.00,,---,0.00,VWS V13.01,2013-01-14 11:17:00,
2013-01-14 05:23:00,-2.4,-5.8,30.56,WNW,284,3.0,9.0,85,0.00,,---,0.00,VWS V13.01,2013-01-14 11:23:00,
2013-01-14 05:28:00,-2.4,-5.8,30.56,WNW,296,7.0,9.0,85,0.00,,---,0.00,VWS V13.01,2013-01-14 11:28:00,
2013-01-14 05:33:00,-2.4,-5.8,30.56,West,277,7.0,7.0,85,0.00,,---,0.00,VWS V13.01,2013-01-14 11:33:00,
2013-01-14 05:38:00,-2.4,-5.8,30.56,WSW,253,1.0,10.0,85,0.00,,---,0.00,VWS V13.01,2013-01-14 11:38:00,
2013-01-14 05:43:00,-2.4,-5.8,30.56,West,278,3.0,10.0,85,0.00,,---,0.00,VWS V13.01,2013-01-14 11:43:00,
2013-01-14 05:49:00,-2.4,-5.8,30.56,West,265,3.0,5.0,85,0.00,,---,0.00,VWS V13.01,2013-01-14 11:49:00,
2013-01-14 05:54:00,-2.4,-5.8,30.56,West,269,1.0,7.0,85,0.00,,---,0.00,VWS V13.01,2013-01-14 11:54:00,
2013-01-14 05:59:00,-2.4,-5.8,30.56,West,276,3.0,7.0,85,0.00,,---,0.00,VWS V13.01,2013-01-14 11:59:00,
2013-01-14 06:04:00,-2.4,-5.8,30.57,West,276,6.0,6.0,85,0.00,,---,0.00,VWS V13.01,2013-01-14 12:04:00,
2013-01-14 06:10:00,-2.4,-5.8,30.57,West,275,2.0,9.0,85,0.00,,---,0.00,VWS V13.01,2013-01-14 12:10:00,
2013-01-14 06:15:00,-2.4,-5.8,30.57,West,267,4.0,9.0,85,0.00,,---,0.00,VWS V13.01,2013-01-14 12:15:00,
2013-01-14 06:20:00,-2.4,-5.8,30.58,West,273,3.0,6.0,85,0.00,,---,0.00,VWS V13.01,2013-01-14 12:20:00,
2013-01-14 06:26:00,-2.4,-5.8,30.58,WNW,290,4.0,9.0,85,0.00,,---,0.00,VWS V13.01,2013-01-14 12:26:00,
2013-01-14 06:31:00,-2.5,-5.9,30.58,WNW,290,3.0,10.0,85,0.00,,---,0.00,VWS V13.01,2013-01-14 12:31:00,
2013-01-14 06:36:00,-2.4,-5.8,30.58,West,281,2.0,9.0,85,0.00,,---,0.00,VWS V13.01,2013-01-14 12:36:00,
2013-01-14 06:41:00,-2.5,-5.9,30.58,West,268,14.0,14.0,85,0.00,,---,0.00,VWS V13.01,2013-01-14 12:41:00,
2013-01-14 06:47:00,-2.6,-6.0,30.59,West,281,7.0,7.0,85,0.00,,---,0.00,VWS V13.01,2013-01-14 12:47:00,
2013-01-14 06:52:00,-2.6,-6.0,30.59,WNW,292,5.0,10.0,85,0.00,,---,0.00,VWS V13.01,2013-01-14 12:52:00,
2013-01-14 06:57:00,-2.6,-6.0,30.59,West,280,2.0,10.0,85,0.00,,---,0.00,VWS V13.01,2013-01-14 12:57:00,
2013-01-14 07:02:00,-2.6,-6.0,30.60,West,279,7.0,10.0,85,0.00,,---,0.00,VWS V13.01,2013-01-14 13:02:00,
2013-01-14 07:08:00,-2.7,-6.1,30.60,West,281,2.0,10.0,85,0.00,,---,0.00,VWS V13.01,2013-01-14 13:08:00,
2013-01-14 07:13:00,-2.7,-6.1,30.60,West,267,2.0,10.0,85,0.00,,---,0.00,VWS V13.01,2013-01-14 13:13:00,
2013-01-14 07:18:00,-2.7,-6.1,30.63,West,268,0.0,5.0,85,0.00,,---,0.00,VWS V13.01,2013-01-14 13:18:00,
2013-01-14 07:23:00,-2.8,-6.2,30.63,NW,310,7.0,8.0,85,0.00,,---,0.00,VWS V13.01,2013-01-14 13:23:00,
2013-01-14 07:28:00,-2.8,-6.2,30.63,West,263,4.0,8.0,85,0.00,,---,0.00,VWS V13.01,2013-01-14 13:28:00,
2013-01-14 07:34:00,-2.8,-6.2,30.63,West,274,3.0,10.0,85,0.00,,---,0.00,VWS V13.01,2013-01-14 13:34:00,
2013-01-14 07:39:00,-2.8,-6.2,30.63,WNW,290,4.0,10.0,85,0.00,,---,0.00,VWS V13.01,2013-01-14 13:39:00,
2013-01-14 07:44:00,-2.8,-6.2,30.63,West,280,3.0,10.0,85,0.00,,---,0.00,VWS V13.01,2013-01-14 13:44:00,
2013-01-14 07:49:00,-2.8,-6.2,30.64,WNW,285,1.0,3.0,85,0.00,,---,0.00,VWS V13.01,2013-01-14 13:49:00,
2013-01-14 07:54:00,-2.9,-6.3,30.64,SW,235,3.0,6.0,85,0.00,,---,0.00,VWS V13.01,2013-01-14 13:54:00,
2013-01-14 08:00:00,-2.9,-6.3,30.64,West,263,1.0,6.0,85,0.00,,---,0.00,VWS V13.01,2013-01-14 14:00:00,
2013-01-14 08:05:00,-2.9,-6.3,30.65,West,265,1.0,9.0,85,0.00,,---,0.00,VWS V13.01,2013-01-14 14:05:00,
2013-01-14 08:10:00,-2.9,-6.3,30.65,West,275,7.0,10.0,85,0.00,,---,0.00,VWS V13.01,2013-01-14 14:10:00,
2013-01-14 08:16:00,-2.9,-6.3,30.66,West,267,2.0,10.0,85,0.00,,---,0.00,VWS V13.01,2013-01-14 14:16:00,
2013-01-14 08:21:00,-2.9,-6.3,30.66,West,281,0.0,10.0,85,0.00,,---,0.00,VWS V13.01,2013-01-14 14:21:00,
2013-01-14 08:26:00,-2.8,-6.2,30.66,WNW,294,1.0,10.0,85,0.00,,---,0.00,VWS V13.01,2013-01-14 14:26:00,
2013-01-14 08:31:00,-2.8,-6.2,30.67,West,266,4.0,10.0,85,0.00,,---,0.00,VWS V13.01,2013-01-14 14:31:00,
2013-01-14 08:36:00,-2.7,-6.1,30.67,WNW,298,3.0,8.0,85,0.00,,---,0.00,VWS V13.01,2013-01-14 14:36:00,
2013-01-14 08:41:00,-2.6,-6.0,30.67,NNW,330,6.0,12.0,85,0.00,,---,0.00,VWS V13.01,2013-01-14 14:41:00,
2013-01-14 08:46:00,-2.4,-5.8,30.67,NNW,338,1.0,9.0,85,0.00,,---,0.00,VWS V13.01,2013-01-14 14:46:00,
2013-01-14 08:52:00,-2.2,-5.6,30.67,West,280,5.0,10.0,85,0.00,,---,0.00,VWS V13.01,2013-01-14 14:52:00,
2013-01-14 08:57:00,-2.3,-5.7,30.67,WSW,257,8.0,12.0,85,0.00,,---,0.00,VWS V13.01,2013-01-14 14:57:00,
2013-01-14 09:02:00,-2.3,-5.7,30.67,West,276,2.0,7.0,85,0.00,,---,0.00,VWS V13.01,2013-01-14 15:02:00,
2013-01-14 09:08:00,-2.4,-5.8,30.67,West,271,2.0,7.0,85,0.00,,---,0.00,VWS V13.01,2013-01-14 15:08:00,
2013-01-14 09:13:00,-2.1,-5.5,30.67,WNW,294,2.0,11.0,85,0.00,,---,0.00,VWS V13.01,2013-01-14 15:13:00,
2013-01-14 09:18:00,-1.5,-4.7,30.67,NW,308,3.0,7.0,86,0.00,,---,0.00,VWS V13.01,2013-01-14 15:18:00,
2013-01-14 09:23:00,-1.2,-4.4,30.67,West,279,7.0,11.0,86,0.00,,---,0.00,VWS V13.01,2013-01-14 15:23:00,
2013-01-14 09:28:00,-1.1,-4.5,30.67,WNW,286,5.0,11.0,85,0.00,,---,0.00,VWS V13.01,2013-01-14 15:28:00,
2013-01-14 09:34:00,-1.1,-4.5,30.67,WNW,294,3.0,10.0,85,0.00,,---,0.00,VWS V13.01,2013-01-14 15:34:00,
2013-01-14 09:39:00,-1.0,-4.4,30.67,West,277,5.0,10.0,85,0.00,,---,0.00,VWS V13.01,2013-01-14 15:39:00,
2013-01-14 09:44:00,-1.0,-4.4,30.67,WNW,284,3.0,10.0,85,0.00,,---,0.00,VWS V13.01,2013-01-14 15:44:00,
2013-01-14 09:49:00,-0.8,-4.0,30.67,West,260,3.0,6.0,86,0.00,,---,0.00,VWS V13.01,2013-01-14 15:49:00,
2013-01-14 09:55:00,-0.7,-3.9,30.67,West,273,1.0,9.0,86,0.00,,---,0.00,VWS V13.01,2013-01-14 15:55:00,
2013-01-14 10:00:00,-0.6,-4.0,30.67,West,269,4.0,9.0,85,0.00,,---,0.00,VWS V13.01,2013-01-14 16:00:00,
2013-01-14 10:05:00,-0.5,-3.7,30.68,SW,236,7.0,10.0,86,0.00,,---,0.00,VWS V13.01,2013-01-14 16:05:00,
2013-01-14 10:10:00,-0.7,-4.1,30.68,West,268,7.0,11.0,85,0.00,,---,0.00,VWS V13.01,2013-01-14 16:10:00,
2013-01-14 10:16:00,-0.6,-3.8,30.69,NW,307,4.0,11.0,86,0.00,,---,0.00,VWS V13.01,2013-01-14 16:16:00,
2013-01-14 10:21:00,-0.4,-3.8,30.69,WSW,244,2.0,7.0,85,0.00,,---,0.00,VWS V13.01,2013-01-14 16:21:00,
2013-01-14 10:26:00,-0.3,-3.7,30.69,West,269,1.0,12.0,85,0.00,,---,0.00,VWS V13.01,2013-01-14 16:26:00,
2013-01-14 10:32:00,-0.3,-3.7,30.68,West,268,3.0,4.0,85,0.00,,---,0.00,VWS V13.01,2013-01-14 16:32:00,
2013-01-14 10:37:00,-0.1,-3.5,30.68,WSW,242,4.0,5.0,85,0.00,,---,0.00,VWS V13.01,2013-01-14 16:37:00,
2013-01-14 10:42:00,-0.1,-3.4,30.68,SW,221,1.0,9.0,85,0.00,,---,0.00,VWS V13.01,2013-01-14 16:42:00,
2013-01-14 10:47:00,-0.1,-3.4,30.68,West,261,4.0,7.0,85,0.00,,---,0.00,VWS V13.01,2013-01-14 16:47:00,
2013-01-14 10:53:00,-0.1,-3.4,30.68,West,262,1.0,7.0,85,0.00,,---,0.00,VWS V13.01,2013-01-14 16:53:00,
2013-01-14 10:58:00,0.1,-3.4,30.68,WSW,244,0.0,7.0,85,0.00,,---,0.00,VWS V13.01,2013-01-14 16:58:00,
2013-01-14 11:03:00,0.2,-3.2,30.68,SW,219,4.0,9.0,85,0.00,,---,0.00,VWS V13.01,2013-01-14 17:03:00,
2013-01-14 11:08:00,0.2,-3.2,30.68,SW,225,6.0,10.0,85,0.00,,---,0.00,VWS V13.01,2013-01-14 17:08:00,
2013-01-14 11:14:00,0.2,-3.2,30.68,WSW,248,6.0,10.0,85,0.00,,---,0.00,VWS V13.01,2013-01-14 17:14:00,
2013-01-14 11:19:00,0.1,-3.4,30.69,West,266,2.0,6.0,85,0.00,,---,0.00,VWS V13.01,2013-01-14 17:19:00,
2013-01-14 11:24:00,0.2,-3.2,30.69,West,262,1.0,7.0,85,0.00,,---,0.00,VWS V13.01,2013-01-14 17:24:00,
2013-01-14 11:30:00,0.6,-2.8,30.69,West,263,3.0,7.0,85,0.00,,---,0.00,VWS V13.01,2013-01-14 17:30:00,
2013-01-14 11:35:00,0.7,-2.7,30.67,SW,236,3.0,6.0,85,0.00,,---,0.00,VWS V13.01,2013-01-14 17:35:00,
2013-01-14 11:40:00,0.7,-3.0,30.67,West,265,1.0,8.0,84,0.00,,---,0.00,VWS V13.01,2013-01-14 17:40:00,
2013-01-14 11:45:00,0.7,-3.0,30.66,West,277,5.0,11.0,84,0.00,,---,0.00,VWS V13.01,2013-01-14 17:45:00,
2013-01-14 11:51:00,0.6,-3.3,30.66,SW,224,4.0,9.0,83,0.00,,---,0.00,VWS V13.01,2013-01-14 17:51:00,
2013-01-14 11:56:00,0.5,-3.4,30.66,NNW,335,4.0,11.0,83,0.00,,---,0.00,VWS V13.01,2013-01-14 17:56:00,
2013-01-14 12:01:00,0.5,-3.4,30.66,WNW,291,2.0,11.0,83,0.00,,---,0.00,VWS V13.01,2013-01-14 18:01:00,
2013-01-14 12:06:00,0.8,-3.1,30.66,WNW,295,3.0,10.0,83,0.00,,---,0.00,VWS V13.01,2013-01-14 18:06:00,
2013-01-14 12:12:00,0.7,-3.5,30.66,West,279,1.0,11.0,82,0.00,,---,0.00,VWS V13.01,2013-01-14 18:12:00,
2013-01-14 12:17:00,0.6,-3.8,30.67,WNW,283,5.0,5.0,81,0.00,,---,0.00,VWS V13.01,2013-01-14 18:17:00,
2013-01-14 12:22:00,0.5,-3.9,30.67,West,268,0.0,11.0,81,0.00,,---,0.00,VWS V13.01,2013-01-14 18:22:00,
2013-01-14 12:28:00,0.6,-3.8,30.67,West,267,2.0,11.0,81,0.00,,---,0.00,VWS V13.01,2013-01-14 18:28:00,
2013-01-14 12:33:00,0.4,-4.3,30.67,NW,311,4.0,10.0,80,0.00,,---,0.00,VWS V13.01,2013-01-14 18:33:00,
2013-01-14 12:38:00,0.4,-4.3,30.67,WNW,288,7.0,13.0,80,0.00,,---,0.00,VWS V13.01,2013-01-14 18:38:00,
2013-01-14 12:43:00,0.2,-4.5,30.67,WSW,242,2.0,13.0,80,0.00,,---,0.00,VWS V13.01,2013-01-14 18:43:00,
2013-01-14 12:49:00,0.1,-4.6,30.67,West,268,6.0,9.0,80,0.00,,---,0.00,VWS V13.01,2013-01-14 18:49:00,
2013-01-14 12:54:00,0.1,-4.9,30.67,West,264,3.0,13.0,79,0.00,,---,0.00,VWS V13.01,2013-01-14 18:54:00,
2013-01-14 12:59:00,-0.1,-4.8,30.67,WNW,285,2.0,13.0,80,0.00,,---,0.00,VWS V13.01,2013-01-14 18:59:00,
2013-01-14 13:04:00,-0.1,-5.1,30.67,WNW,284,7.0,8.0,79,0.00,,---,0.00,VWS V13.01,2013-01-14 19:04:00,
2013-01-14 13:10:00,-0.4,-5.6,30.67,West,277,13.0,14.0,78,0.00,,---,0.00,VWS V13.01,2013-01-14 19:10:00,
2013-01-14 13:15:00,-0.6,-5.5,30.67,West,278,3.0,14.0,79,0.00,,---,0.00,VWS V13.01,2013-01-14 19:15:00,
2013-01-14 13:20:00,-0.5,-5.4,30.69,NNW,330,4.0,11.0,79,0.00,,---,0.00,VWS V13.01,2013-01-14 19:20:00,
2013-01-14 13:25:00,-0.7,-5.6,30.69,West,267,4.0,12.0,79,0.00,,---,0.00,VWS V13.01,2013-01-14 19:25:00,
2013-01-14 13:31:00,-0.1,-4.9,30.69,West,281,6.0,12.0,79,0.00,,---,0.00,VWS V13.01,2013-01-14 19:31:00,
2013-01-14 13:36:00,0.1,-5.4,30.69,WSW,241,4.0,13.0,77,0.00,,---,0.00,VWS V13.01,2013-01-14 19:36:00,
2013-01-14 13:41:00,0.2,-5.3,30.69,WSW,254,3.0,13.0,77,0.00,,---,0.00,VWS V13.01,2013-01-14 19:41:00,
2013-01-14 13:46:00,0.3,-4.9,30.71,WNW,294,6.0,13.0,78,0.00,,---,0.00,VWS V13.01,2013-01-14 19:46:00,
2013-01-14 13:51:00,0.1,-5.5,30.71,West,276,5.0,11.0,77,0.00,,---,0.00,VWS V13.01,2013-01-14 19:51:00,
2013-01-14 13:57:00,-0.1,-5.8,30.71,West,273,3.0,12.0,76,0.00,,---,0.00,VWS V13.01,2013-01-14 19:57:00,
2013-01-14 14:02:00,0.1,-5.4,30.70,WNW,290,2.0,10.0,77,0.00,,---,0.00,VWS V13.01,2013-01-14 20:02:00,
2013-01-14 14:07:00,0.1,-5.7,30.70,West,275,9.0,10.0,76,0.00,,---,0.00,VWS V13.01,2013-01-14 20:07:00,
2013-01-14 14:12:00,-0.2,-5.9,30.70,WNW,296,6.0,13.0,76,0.00,,---,0.00,VWS V13.01,2013-01-14 20:12:00,
2013-01-14 14:18:00,-0.4,-5.9,30.67,WNW,298,7.0,8.0,77,0.00,,---,0.00,VWS V13.01,2013-01-14 20:18:00,
2013-01-14 14:23:00,-0.1,-5.6,30.67,West,276,0.0,10.0,77,0.00,,---,0.00,VWS V13.01,2013-01-14 20:23:00,
2013-01-14 14:28:00,-0.2,-5.9,30.67,WNW,284,3.0,12.0,76,0.00,,---,0.00,VWS V13.01,2013-01-14 20:28:00,
2013-01-14 14:33:00,-0.3,-5.8,30.67,West,262,4.0,13.0,77,0.00,,---,0.00,VWS V13.01,2013-01-14 20:33:00,
2013-01-14 14:39:00,-0.4,-5.9,30.67,NW,305,1.0,14.0,77,0.00,,---,0.00,VWS V13.01,2013-01-14 20:39:00,
2013-01-14 14:44:00,0.6,-4.6,30.67,WNW,285,7.0,14.0,78,0.00,,---,0.00,VWS V13.01,2013-01-14 20:44:00,
2013-01-14 14:49:00,0.7,-5.1,30.67,NW,309,4.0,10.0,76,0.00,,---,0.00,VWS V13.01,2013-01-14 20:49:00,
2013-01-14 14:55:00,0.6,-5.2,30.67,NNW,346,5.0,15.0,76,0.00,,---,0.00,VWS V13.01,2013-01-14 20:55:00,
2013-01-14 15:00:00,0.1,-5.7,30.67,WNW,288,4.0,15.0,76,0.00,,---,0.00,VWS V13.01,2013-01-14 21:00:00,
2013-01-14 15:05:00,-0.4,-5.9,30.68,WNW,288,6.0,9.0,77,0.00,,---,0.00,VWS V13.01,2013-01-14 21:05:00,
2013-01-14 15:10:00,-0.5,-5.7,30.68,WSW,257,2.0,9.0,78,0.00,,---,0.00,VWS V13.01,2013-01-14 21:10:00,
2013-01-14 15:16:00,-0.6,-5.8,30.69,West,261,4.0,9.0,78,0.00,,---,0.00,VWS V13.01,2013-01-14 21:16:00,
2013-01-14 15:21:00,-0.7,-5.9,30.69,WSW,254,5.0,10.0,78,0.00,,---,0.00,VWS V13.01,2013-01-14 21:21:00,
2013-01-14 15:26:00,-0.9,-6.1,30.69,West,277,4.0,12.0,78,0.00,,---,0.00,VWS V13.01,2013-01-14 21:26:00,
2013-01-14 15:31:00,-0.9,-5.8,30.70,WSW,257,5.0,12.0,79,0.00,,---,0.00,VWS V13.01,2013-01-14 21:31:00,
2013-01-14 15:36:00,-1.0,-5.9,30.70,West,268,6.0,9.0,79,0.00,,---,0.00,VWS V13.01,2013-01-14 21:36:00,
2013-01-14 15:42:00,-1.1,-6.0,30.70,West,267,3.0,13.0,79,0.00,,---,0.00,VWS V13.01,2013-01-14 21:42:00,
2013-01-14 15:47:00,-1.2,-6.1,30.70,West,270,2.0,4.0,79,0.00,,---,0.00,VWS V13.01,2013-01-14 21:47:00,
2013-01-14 15:52:00,-1.3,-6.2,30.70,WNW,284,3.0,12.0,79,0.00,,---,0.00,VWS V13.01,2013-01-14 21:52:00,
2013-01-14 15:57:00,-1.4,-6.1,30.70,SW,227,4.0,12.0,80,0.00,,---,0.00,VWS V13.01,2013-01-14 21:57:00,
2013-01-14 16:03:00,-1.4,-6.1,30.71,West,272,3.0,4.0,80,0.00,,---,0.00,VWS V13.01,2013-01-14 22:03:00,
2013-01-14 16:08:00,-1.4,-6.1,30.71,West,275,6.0,11.0,80,0.00,,---,0.00,VWS V13.01,2013-01-14 22:08:00,
2013-01-14 16:13:00,-1.4,-6.1,30.71,WSW,250,6.0,12.0,80,0.00,,---,0.00,VWS V13.01,2013-01-14 22:13:00,
2013-01-14 16:18:00,-1.5,-6.2,30.73,West,279,2.0,7.0,80,0.00,,---,0.00,VWS V13.01,2013-01-14 22:18:00,
2013-01-14 16:24:00,-1.6,-6.0,30.73,WSW,254,0.0,9.0,81,0.00,,---,0.00,VWS V13.01,2013-01-14 22:24:00,
2013-01-14 16:29:00,-1.5,-5.9,30.73,West,277,0.0,9.0,81,0.00,,---,0.00,VWS V13.01,2013-01-14 22:29:00,
2013-01-14 16:34:00,-1.6,-6.0,30.72,West,269,4.0,12.0,81,0.00,,---,0.00,VWS V13.01,2013-01-14 22:34:00,
2013-01-14 16:39:00,-1.7,-6.1,30.72,WNW,296,4.0,12.0,81,0.00,,---,0.00,VWS V13.01,2013-01-14 22:39:00,
2013-01-14 16:45:00,-1.9,-6.6,30.72,West,278,0.0,12.0,80,0.00,,---,0.00,VWS V13.01,2013-01-14 22:45:00,
2013-01-14 16:50:00,-2.0,-6.4,30.72,West,281,1.0,3.0,81,0.00,,---,0.00,VWS V13.01,2013-01-14 22:50:00,
2013-01-14 16:55:00,-2.1,-6.5,30.72,West,281,2.0,3.0,81,0.00,,---,0.00,VWS V13.01,2013-01-14 22:55:00,
2013-01-14 17:00:00,-2.3,-6.4,30.72,West,281,0.0,3.0,82,0.00,,---,0.00,VWS V13.01,2013-01-14 23:00:00,
2013-01-14 17:06:00,-2.4,-6.5,30.72,West,279,0.0,4.0,82,0.00,,---,0.00,VWS V13.01,2013-01-14 23:06:00,
2013-01-14 17:11:00,-2.5,-6.6,30.72,West,279,0.0,4.0,82,0.00,,---,0.00,VWS V13.01,2013-01-14 23:11:00,
2013-01-14 17:16:00,-2.7,-6.8,30.72,West,279,1.0,4.0,82,0.00,,---,0.00,VWS V13.01,2013-01-14 23:16:00,
2013-01-14 17:21:00,-2.8,-6.9,30.72,West,279,0.0,1.0,82,0.00,,---,0.00,VWS V13.01,2013-01-14 23:21:00,
2013-01-14 17:26:00,-3.0,-7.1,30.72,West,279,0.0,1.0,82,0.00,,---,0.00,VWS V13.01,2013-01-14 23:26:00,
2013-01-14 17:32:00,-3.1,-7.0,30.72,West,279,0.0,0.0,83,0.00,,---,0.00,VWS V13.01,2013-01-14 23:32:00,
2013-01-14 17:37:00,-3.1,-7.0,30.72,West,279,0.0,2.0,83,0.00,,---,0.00,VWS V13.01,2013-01-14 23:37:00,
2013-01-14 17:42:00,-3.1,-7.0,30.72,West,279,2.0,3.0,83,0.00,,---,0.00,VWS V13.01,2013-01-14 23:42:00,
2013-01-14 17:47:00,-3.1,-7.0,30.72,West,279,1.0,2.0,83,0.00,,---,0.00,VWS V13.01,2013-01-14 23:47:00,
2013-01-14 17:53:00,-3.1,-7.0,30.72,West,279,0.0,2.0,83,0.00,,---,0.00,VWS V13.01,2013-01-14 23:53:00,
2013-01-14 17:58:00,-3.0,-6.9,30.72,West,279,0.0,2.0,83,0.00,,---,0.00,VWS V13.01,2013-01-14 23:58:00,
2013-01-14 18:03:00,-3.1,-7.0,30.72,West,279,0.0,2.0,83,0.00,,---,0.00,VWS V13.01,2013-01-15 00:03:00,
2013-01-14 18:08:00,-3.1,-7.0,30.72,West,279,0.0,2.0,83,0.00,,---,0.00,VWS V13.01,2013-01-15 00:08:00,
2013-01-14 18:14:00,-3.2,-7.1,30.72,West,279,0.0,2.0,83,0.00,,---,0.00,VWS V13.01,2013-01-15 00:14:00,
2013-01-14 18:19:00,-3.2,-7.1,30.73,West,279,0.0,0.0,83,0.00,,---,0.00,VWS V13.01,2013-01-15 00:19:00,
2013-01-14 18:24:00,-3.4,-7.3,30.73,West,279,0.0,0.0,83,0.00,,---,0.00,VWS V13.01,2013-01-15 00:24:00,
2013-01-14 18:29:00,-3.5,-7.4,30.73,West,279,0.0,2.0,83,0.00,,---,0.00,VWS V13.01,2013-01-15 00:29:00,
2013-01-14 18:34:00,-3.6,-7.5,30.73,West,279,0.0,1.0,83,0.00,,---,0.00,VWS V13.01,2013-01-15 00:34:00,
2013-01-14 18:40:00,-3.7,-7.6,30.73,West,279,0.0,1.0,83,0.00,,---,0.00,VWS V13.01,2013-01-15 00:40:00,
2013-01-14 18:45:00,-3.9,-7.8,30.73,West,279,0.0,1.0,83,0.00,,---,0.00,VWS V13.01,2013-01-15 00:45:00,
2013-01-14 18:50:00,-4.1,-7.9,30.73,West,279,0.0,2.0,83,0.00,,---,0.00,VWS V13.01,2013-01-15 00:50:00,
2013-01-14 18:55:00,-4.3,-8.1,30.73,West,279,0.0,2.0,83,0.00,,---,0.00,VWS V13.01,2013-01-15 00:55:00,
2013-01-14 19:01:00,-4.2,-8.0,30.73,West,279,0.0,3.0,83,0.00,,---,0.00,VWS V13.01,2013-01-15 01:01:00,
2013-01-14 19:06:00,-4.0,-7.6,30.73,West,279,0.0,2.0,84,0.00,,---,0.00,VWS V13.01,2013-01-15 01:06:00,
2013-01-14 19:11:00,-3.9,-7.5,30.73,West,275,0.0,4.0,84,0.00,,---,0.00,VWS V13.01,2013-01-15 01:11:00,
2013-01-14 19:16:00,-3.9,-7.5,30.73,West,275,0.0,4.0,84,0.00,,---,0.00,VWS V13.01,2013-01-15 01:16:00,
2013-01-14 19:21:00,-4.0,-7.8,30.73,WSW,256,1.0,4.0,83,0.00,,---,0.00,VWS V13.01,2013-01-15 01:21:00,
2013-01-14 19:27:00,-3.9,-7.5,30.73,WSW,256,1.0,4.0,84,0.00,,---,0.00,VWS V13.01,2013-01-15 01:27:00,
2013-01-14 19:32:00,-3.7,-7.3,30.73,WSW,256,1.0,3.0,84,0.00,,---,0.00,VWS V13.01,2013-01-15 01:32:00,
2013-01-14 19:37:00,-3.4,-7.0,30.73,WSW,246,2.0,4.0,84,0.00,,---,0.00,VWS V13.01,2013-01-15 01:37:00,
2013-01-14 19:43:00,-3.2,-6.8,30.73,WSW,244,3.0,4.0,84,0.00,,---,0.00,VWS V13.01,2013-01-15 01:43:00,
2013-01-14 19:48:00,-2.8,-6.4,30.73,SW,228,3.0,4.0,84,0.00,,---,0.00,VWS V13.01,2013-01-15 01:48:00,
2013-01-14 19:53:00,-2.4,-6.0,30.73,SW,221,2.0,6.0,84,0.00,,---,0.00,VWS V13.01,2013-01-15 01:53:00,
2013-01-14 19:58:00,-2.4,-6.0,30.73,SW,222,2.0,6.0,84,0.00,,---,0.00,VWS V13.01,2013-01-15 01:58:00,
2013-01-14 20:04:00,-2.3,-5.9,30.70,SW,235,5.0,5.0,84,0.00,,---,0.00,VWS V13.01,2013-01-15 02:04:00,
2013-01-14 20:09:00,-2.2,-5.8,30.70,SW,232,1.0,5.0,84,0.00,,---,0.00,VWS V13.01,2013-01-15 02:09:00,
2013-01-14 20:14:00,-1.9,-5.5,30.70,SW,223,3.0,6.0,84,0.00,,---,0.00,VWS V13.01,2013-01-15 02:14:00,
2013-01-14 20:19:00,-1.7,-5.3,30.70,SW,227,1.0,7.0,84,0.00,,---,0.00,VWS V13.01,2013-01-15 02:19:00,
2013-01-14 20:25:00,-1.5,-5.2,30.70,SSW,212,1.0,7.0,84,0.00,,---,0.00,VWS V13.01,2013-01-15 02:25:00,
2013-01-14 20:30:00,-1.4,-5.1,30.70,SW,214,4.0,7.0,84,0.00,,---,0.00,VWS V13.01,2013-01-15 02:30:00,
2013-01-14 20:35:00,-1.4,-5.1,30.67,South,190,1.0,7.0,84,0.00,,---,0.00,VWS V13.01,2013-01-15 02:35:00,
2013-01-14 20:40:00,-1.3,-4.9,30.67,SW,229,2.0,9.0,84,0.00,,---,0.00,VWS V13.01,2013-01-15 02:40:00,
2013-01-14 20:46:00,-1.2,-4.8,30.67,WSW,247,1.0,9.0,84,0.00,,---,0.00,VWS V13.01,2013-01-15 02:46:00,
2013-01-14 20:51:00,-1.0,-4.7,30.67,SW,219,6.0,10.0,84,0.00,,---,0.00,VWS V13.01,2013-01-15 02:51:00,
2013-01-14 20:56:00,-0.9,-4.6,30.67,WSW,242,1.0,10.0,84,0.00,,---,0.00,VWS V13.01,2013-01-15 02:56:00,
2013-01-14 21:01:00,-0.9,-4.6,30.67,SW,236,1.0,10.0,84,0.00,,---,0.00,VWS V13.01,2013-01-15 03:01:00,
2013-01-14 21:06:00,-0.8,-4.5,30.67,SSW,210,3.0,10.0,84,0.00,,---,0.00,VWS V13.01,2013-01-15 03:06:00,
2013-01-14 21:12:00,-0.6,-4.3,30.67,SW,228,4.0,11.0,84,0.00,,---,0.00,VWS V13.01,2013-01-15 03:12:00,
2013-01-14 21:17:00,-0.4,-4.1,30.67,SW,234,4.0,6.0,84,0.00,,---,0.00,VWS V13.01,2013-01-15 03:17:00,
2013-01-14 21:22:00,-0.2,-3.9,30.67,SW,218,2.0,10.0,84,0.00,,---,0.00,VWS V13.01,2013-01-15 03:22:00,
2013-01-14 21:27:00,-0.1,-3.7,30.67,WSW,250,2.0,10.0,84,0.00,,---,0.00,VWS V13.01,2013-01-15 03:27:00,
2013-01-14 21:33:00,0.1,-3.6,30.66,SW,231,3.0,5.0,84,0.00,,---,0.00,VWS V13.01,2013-01-15 03:33:00,
2013-01-14 21:38:00,0.4,-3.3,30.66,WSW,240,4.0,9.0,84,0.00,,---,0.00,VWS V13.01,2013-01-15 03:38:00,
2013-01-14 21:43:00,0.6,-3.1,30.66,SW,236,6.0,13.0,84,0.00,,---,0.00,VWS V13.01,2013-01-15 03:43:00,
2013-01-14 21:48:00,0.6,-3.1,30.66,West,261,5.0,9.0,84,0.00,,---,0.00,VWS V13.01,2013-01-15 03:48:00,
2013-01-14 21:54:00,0.7,-2.7,30.66,SW,231,4.0,10.0,85,0.00,,---,0.00,VWS V13.01,2013-01-15 03:54:00,
2013-01-14 21:59:00,0.7,-2.7,30.66,SW,219,3.0,10.0,85,0.00,,---,0.00,VWS V13.01,2013-01-15 03:59:00,
2013-01-14 22:04:00,0.8,-2.6,30.65,SSW,202,4.0,10.0,85,0.00,,---,0.00,VWS V13.01,2013-01-15 04:04:00,
2013-01-14 22:09:00,0.9,-2.8,30.65,SW,219,3.0,10.0,84,0.00,,---,0.00,VWS V13.01,2013-01-15 04:09:00,
2013-01-14 22:15:00,1.0,-2.5,30.65,SSW,209,4.0,12.0,85,0.00,,---,0.00,VWS V13.01,2013-01-15 04:15:00,
2013-01-14 22:20:00,1.1,-2.3,30.65,West,259,4.0,7.0,85,0.00,,---,0.00,VWS V13.01,2013-01-15 04:20:00,
2013-01-14 22:25:00,1.0,-2.7,30.65,SW,229,4.0,7.0,84,0.00,,---,0.00,VWS V13.01,2013-01-15 04:25:00,
2013-01-14 22:30:00,1.1,-2.3,30.66,West,259,2.0,13.0,85,0.00,,---,0.00,VWS V13.01,2013-01-15 04:30:00,
2013-01-14 22:36:00,1.1,-2.3,30.66,SSW,213,2.0,9.0,85,0.00,,---,0.00,VWS V13.01,2013-01-15 04:36:00,
2013-01-14 22:41:00,1.2,-2.2,30.66,SW,218,7.0,12.0,85,0.00,,---,0.00,VWS V13.01,2013-01-15 04:41:00,
2013-01-14 22:46:00,1.4,-2.0,30.65,SW,222,5.0,12.0,85,0.00,,---,0.00,VWS V13.01,2013-01-15 04:46:00,
2013-01-14 22:52:00,1.5,-2.0,30.65,WSW,251,6.0,12.0,85,0.00,,---,0.00,VWS V13.01,2013-01-15 04:52:00,
2013-01-14 22:57:00,1.6,-2.1,30.65,West,261,2.0,12.0,84,0.00,,---,0.00,VWS V13.01,2013-01-15 04:57:00,
2013-01-14 23:03:00,1.5,-2.2,30.64,WSW,258,2.0,9.0,84,0.00,,---,0.00,VWS V13.01,2013-01-15 05:03:00,
2013-01-14 23:04:00,1.5,-2.2,30.64,SSW,211,1.0,9.0,84,0.00,,---,0.00,VWS V13.01,2013-01-15 05:04:00,
2013-01-14 23:06:00,1.5,-2.2,30.64,SW,236,6.0,9.0,84,0.00,,---,0.00,VWS V13.01,2013-01-15 05:06:00,
2013-01-14 23:11:00,1.5,-2.2,30.64,SW,221,2.0,10.0,84,0.00,,---,0.00,VWS V13.01,2013-01-15 05:11:00,
2013-01-14 23:16:00,1.5,-2.2,30.64,WSW,248,1.0,10.0,84,0.00,,---,0.00,VWS V13.01,2013-01-15 05:16:00,
2013-01-14 23:21:00,1.5,-2.2,30.64,SSW,201,9.0,13.0,84,0.00,,---,0.00,VWS V13.01,2013-01-15 05:21:00,
2013-01-14 23:27:00,1.5,-2.2,30.64,SW,222,5.0,13.0,84,0.00,,---,0.00,VWS V13.01,2013-01-15 05:27:00,
2013-01-14 23:32:00,1.6,-2.1,30.64,SW,221,2.0,7.0,84,0.00,,---,0.00,VWS V13.01,2013-01-15 05:32:00,
2013-01-14 23:37:00,1.6,-2.1,30.64,WSW,250,3.0,12.0,84,0.00,,---,0.00,VWS V13.01,2013-01-15 05:37:00,
2013-01-14 23:42:00,1.5,-2.2,30.64,SW,219,2.0,12.0,84,0.00,,---,0.00,VWS V13.01,2013-01-15 05:42:00,
2013-01-14 23:48:00,1.5,-2.2,30.64,SW,217,1.0,7.0,84,0.00,,---,0.00,VWS V13.01,2013-01-15 05:48:00,
2013-01-14 23:53:00,1.6,-2.1,30.64,SW,232,4.0,7.0,84,0.00,,---,0.00,VWS V13.01,2013-01-15 05:53:00,
2013-01-14 23:58:00,1.7,-2.0,30.64,SSW,212,7.0,11.0,84,0.00,,---,0.00,VWS V13.01,2013-01-15 05:58:00,